Powrót do katalogu

STARLINK-36960

AktywnyŁącznośćSSO
NORAD 68225·PAYLOAD·🇺🇸 United States

Wystrzelony Mar 17, 2026 z Vandenberg Space Force Base

Loading…

Następne Przeloty (najbliższe 24 godziny)

TLE

ŚwieżeSource: CelesTrak SupGP

Epoka: Sep 15, 2026, 04:03 UTC

1 68225C 26053U   26258.16923611  .00007786  00000+0  24158-3 0  2589
2 68225  97.2851 132.0583 0002059  94.5305  89.8042 15.33449835    18

Śledź STARLINK-36960 w czasie rzeczywistym z AllMySat

Download on the App Store